"Period start","avg(HW err(1)/warn(2) (#))","avg(Visibility (m))","avg(Weather code (#))","avg(Precip intensity (mm/h))","min(HW err(1)/warn(2) (#))","max(HW err(1)/warn(2) (#))","std(HW err(1)/warn(2) (#))","med(HW err(1)/warn(2) (#))","min(Visibility (m))","max(Visibility (m))","std(Visibility (m))","med(Visibility (m))","min(Weather code (#))","max(Weather code (#))","std(Weather code (#))","med(Weather code (#))","min(Precip intensity (mm/h))","max(Precip intensity (mm/h))","std(Precip intensity (mm/h))","med(Precip intensity (mm/h))"
2014-05-06 00:00:00,2,15078,0,0.00,2,2,0,2,10957,23325,4044,13720,0,0,0,0,0.00,0.00,0.00,0.00
2014-05-06 00:10:00,2,14583,0,0.00,2,2,0,2,11794,19162,2171,14342,0,0,0,0,0.00,0.00,0.00,0.00
2014-05-06 00:20:00,2,15339,0,0.00,2,2,0,2,10476,19371,2623,15129,0,0,0,0,0.00,0.00,0.00,0.00
2014-05-06 00:30:00,2,14222,0,0.00,2,2,0,2,10160,18616,2553,14143,0,0,0,0,0.00,0.00,0.00,0.00
2014-05-06 00:40:00,2,15557,0,0.00,2,2,0,2,11706,19382,2483,16312,0,0,0,0,0.00,0.00,0.00,0.00
2014-05-06 00:50:00,2,17073,0,0.00,2,2,0,2,11069,24967,3719,16738,0,0,0,0,0.00,0.00,0.00,0.00
2014-05-06 01:00:00,2,18035,0,0.00,2,2,0,2,11352,22278,2927,18078,0,0,0,0,0.00,0.00,0.00,0.00
2014-05-06 01:10:00,2,19609,0,0.00,2,2,0,2,11077,29276,5328,21204,0,0,0,0,0.00,0.00,0.00,0.00
2014-05-06 01:20:00,2,17316,0,0.00,2,2,0,2,12659,25357,3681,17356,0,0,0,0,0.00,0.00,0.00,0.00
2014-05-06 01:30:00,2,17955,0,0.00,2,2,0,2,12665,27775,4705,16195,0,0,0,0,0.00,0.00,0.00,0.00
2014-05-06 01:40:00,2,14921,0,0.00,2,2,0,2,9548,18683,2851,15354,0,0,0,0,0.00,0.00,0.00,0.00
2014-05-06 01:50:00,2,18944,0,0.00,2,2,0,2,10788,29934,5232,18996,0,0,0,0,0.00,0.00,0.00,0.00
2014-05-06 02:00:00,2,19028,0,0.00,2,2,0,2,12782,27702,4379,18420,0,0,0,0,0.00,0.00,0.00,0.00
2014-05-06 02:10:00,2,16241,0,0.00,2,2,0,2,11448,22752,3204,15664,0,0,0,0,0.00,0.00,0.00,0.00
2014-05-06 02:20:00,2,15821,0,0.00,2,2,0,2,10351,22230,3721,15052,0,0,0,0,0.00,0.00,0.00,0.00
2014-05-06 02:30:00,2,20158,0,0.00,2,2,0,2,13365,32626,5425,18917,0,0,0,0,0.00,0.00,0.00,0.00
2014-05-06 02:40:00,2,17464,0,0.00,2,2,0,2,10769,30241,5090,17551,0,0,0,0,0.00,0.00,0.00,0.00
2014-05-06 02:50:00,2,23387,0,0.00,2,2,0,2,13511,33065,6520,26608,0,0,0,0,0.00,0.00,0.00,0.00
2014-05-06 03:00:00,2,19092,0,0.00,2,2,0,2,14574,24102,2681,19663,0,0,0,0,0.00,0.00,0.00,0.00
2014-05-06 03:10:00,2,20445,0,0.00,2,2,0,2,13990,30578,6463,17160,0,0,0,0,0.00,0.00,0.00,0.00
2014-05-06 03:20:00,2,19813,0,0.00,2,2,0,2,14076,26440,3683,19054,0,0,0,0,0.00,0.00,0.00,0.00
2014-05-06 03:30:00,2,21232,0,0.00,2,2,0,2,13484,27107,3513,21684,0,0,0,0,0.00,0.00,0.00,0.00
2014-05-06 03:40:00,2,24264,0,0.00,2,2,0,2,17165,33132,3861,23978,0,0,0,0,0.00,0.00,0.00,0.00
2014-05-06 03:50:00,2,20256,0,0.00,2,2,0,2,13457,27693,4007,19432,0,0,0,0,0.00,0.00,0.00,0.00
2014-05-06 04:00:00,2,23320,0,0.00,2,2,0,2,17829,29705,3833,22696,0,0,0,0,0.00,0.00,0.00,0.00
2014-05-06 04:10:00,2,21573,0,0.00,2,2,0,2,18465,28095,3390,20662,0,0,0,0,0.00,0.00,0.00,0.00
2014-05-06 04:20:00,2,26008,0,0.00,2,2,0,2,17102,33058,5212,25124,0,0,0,0,0.00,0.00,0.00,0.00
2014-05-06 04:30:00,2,22531,0,0.00,2,2,0,2,15895,34343,6596,19106,0,0,0,0,0.00,0.00,0.00,0.00
2014-05-06 04:40:00,2,25017,0,0.00,2,2,0,2,14781,39176,6958,24426,0,0,0,0,0.00,0.00,0.00,0.00
2014-05-06 04:50:00,2,28484,0,0.00,2,2,0,2,19135,42237,7016,27236,0,0,0,0,0.00,0.00,0.00,0.00
2014-05-06 05:00:00,2,19263,0,0.00,2,2,0,2,13067,24787,3750,19598,0,0,0,0,0.00,0.00,0.00,0.00
2014-05-06 05:10:00,2,24013,0,0.00,2,2,0,2,16402,34139,5254,24328,0,0,0,0,0.00,0.00,0.00,0.00
2014-05-06 05:20:00,2,27376,0,0.00,2,2,0,2,17829,38979,6422,28092,0,0,0,0,0.00,0.00,0.00,0.00
2014-05-06 05:30:00,2,22052,0,0.00,2,2,0,2,17148,26544,2561,21826,0,0,0,0,0.00,0.00,0.00,0.00
2014-05-06 05:40:00,2,31371,0,0.00,2,2,0,2,21826,48556,8986,27596,0,0,0,0,0.00,0.00,0.00,0.00
2014-05-06 05:50:00,2,21039,0,0.00,2,2,0,2,15638,25711,2866,20798,0,0,0,0,0.00,0.00,0.00,0.00
2014-05-06 06:00:00,2,25904,0,0.00,2,2,0,2,21245,33992,3877,24180,0,0,0,0,0.00,0.00,0.00,0.00
2014-05-06 06:10:00,2,27925,0,0.00,2,2,0,2,19074,36449,5043,27002,0,0,0,0,0.00,0.00,0.00,0.00
2014-05-06 06:20:00,2,25206,0,0.00,2,2,0,2,15229,39806,7048,24020,0,0,0,0,0.00,0.00,0.00,0.00
2014-05-06 06:30:00,2,26825,0,0.00,2,2,0,2,16585,39420,5869,26644,0,0,0,0,0.00,0.00,0.00,0.00
2014-05-06 06:40:00,2,32869,0,0.00,2,2,0,2,23434,41897,4807,33438,0,0,0,0,0.00,0.00,0.00,0.00
2014-05-06 06:50:00,2,36495,0,0.00,2,2,0,2,26577,45730,6631,39121,0,0,0,0,0.00,0.00,0.00,0.00
2014-05-06 07:00:00,2,25735,0,0.00,2,2,0,2,20141,32601,4140,25504,0,0,0,0,0.00,0.00,0.00,0.00
2014-05-06 07:10:00,2,30317,0,0.00,2,2,0,2,24166,43085,6283,27996,0,0,0,0,0.00,0.00,0.00,0.00
2014-05-06 07:20:00,2,28455,0,0.00,2,2,0,2,23079,36228,4150,28157,0,0,0,0,0.00,0.00,0.00,0.00
2014-05-06 07:30:00,2,32736,0,0.00,2,2,0,2,24210,39073,5188,34338,0,0,0,0,0.00,0.00,0.00,0.00
2014-05-06 07:40:00,2,29420,0,0.00,2,2,0,2,18094,48788,10015,27166,0,0,0,0,0.00,0.00,0.00,0.00
2014-05-06 07:50:00,2,28215,0,0.00,2,2,0,2,20862,40907,5286,27992,0,0,0,0,0.00,0.00,0.00,0.00
2014-05-06 08:00:00,2,30902,0,0.00,2,2,0,2,27674,36070,2511,30488,0,0,0,0,0.00,0.00,0.00,0.00
2014-05-06 08:10:00,2,33136,0,0.00,2,2,0,2,24432,42070,5936,31291,0,0,0,0,0.00,0.00,0.00,0.00
2014-05-06 08:20:00,2,29228,0,0.00,2,2,0,2,18811,40365,6487,27416,0,0,0,0,0.00,0.00,0.00,0.00
2014-05-06 08:30:00,2,34628,0,0.00,2,2,0,2,28004,41314,3332,34254,0,0,0,0,0.00,0.00,0.00,0.00
2014-05-06 08:40:00,2,33208,0,0.00,2,2,0,2,29562,37288,2736,32140,0,0,0,0,0.00,0.00,0.00,0.00
2014-05-06 08:50:00,2,29323,0,0.00,2,2,0,2,22011,33123,3293,29808,0,0,0,0,0.00,0.00,0.00,0.00
2014-05-06 09:00:00,2,33788,0,0.00,2,2,0,2,29279,40351,4007,33191,0,0,0,0,0.00,0.00,0.00,0.00
2014-05-06 09:10:00,2,23144,0,0.00,2,2,0,2,16935,32822,5068,21968,0,0,0,0,0.00,0.00,0.00,0.00
2014-05-06 09:20:00,2,19269,0,0.00,2,2,0,2,16596,22825,2235,18009,0,0,0,0,0.00,0.00,0.00,0.00
2014-05-06 09:30:00,2,16998,0,0.00,2,2,0,2,14532,21317,1960,16633,0,0,0,0,0.00,0.00,0.00,0.00
2014-05-06 09:40:00,2,14701,0,0.00,2,2,0,2,12975,17839,1468,14241,0,0,0,0,0.00,0.00,0.00,0.00
2014-05-06 09:50:00,2,15249,0,0.00,2,2,0,2,13688,18204,1666,14374,0,0,0,0,0.00,0.00,0.00,0.00
2014-05-06 10:00:00,2,14802,0,0.00,2,2,0,2,13168,16709,1013,14858,0,0,0,0,0.00,0.00,0.00,0.00
2014-05-06 10:10:00,2,17031,0,0.00,2,2,0,2,13630,20786,2369,16979,0,0,0,0,0.00,0.00,0.00,0.00
2014-05-06 10:20:00,2,15719,0,0.00,2,2,0,2,9087,20360,3013,16212,0,0,0,0,0.00,0.00,0.00,0.00
2014-05-06 10:30:00,2,12427,1,0.00,2,2,0,2,3649,22418,6783,15076,0,10,3,0,0.00,0.00,0.00,0.00
2014-05-06 10:40:00,2,28959,10,0.00,2,2,0,2,8414,40457,11630,32733,10,10,0,10,0.00,0.00,0.00,0.00
2014-05-06 10:50:00,2,40149,0,0.00,2,2,0,2,32811,47465,4102,40260,0,0,0,0,0.00,0.00,0.00,0.00
2014-05-06 11:00:00,2,40868,0,0.00,2,2,0,2,31802,47206,4955,41147,0,0,0,0,0.00,0.00,0.00,0.00
2014-05-06 11:10:00,2,39629,0,0.00,2,2,0,2,35195,45596,3233,39882,0,0,0,0,0.00,0.00,0.00,0.00
2014-05-06 11:20:00,2,47572,0,0.00,2,2,0,2,41552,50000,3191,49344,0,0,0,0,0.00,0.00,0.00,0.00
2014-05-06 11:30:00,2,39272,0,0.00,2,2,0,2,10837,50000,12997,46398,0,0,0,0,0.00,0.00,0.00,0.00
2014-05-06 11:40:00,2,6424,23,0.02,2,2,0,2,2485,15899,3938,5253,0,77,33,0,0.00,0.10,0.03,0.00
2014-05-06 11:50:00,2,2679,75,0.16,2,2,0,2,2118,3294,415,2740,71,77,3,77,0.05,0.25,0.06,0.15
2014-05-06 12:00:00,2,3133,71,0.26,2,2,0,2,2138,4873,929,2957,71,71,0,71,0.15,0.45,0.11,0.23
2014-05-06 12:10:00,2,6592,76,0.11,2,2,0,2,4361,9182,1361,6597,71,77,2,77,0.05,0.20,0.05,0.10
2014-05-06 12:20:00,2,7528,73,0.15,2,2,0,2,5281,8799,985,7580,71,78,3,71,0.05,0.40,0.09,0.12
2014-05-06 12:30:00,2,6656,71,0.23,2,2,0,2,5057,8620,902,6409,71,71,0,71,0.05,0.35,0.09,0.20
2014-05-06 12:40:00,2,5582,71,0.47,2,2,0,2,4288,6687,740,5456,71,71,0,71,0.30,0.65,0.13,0.48
2014-05-06 12:50:00,2,5535,71,0.60,2,2,0,2,3254,8734,1432,5388,71,71,0,71,0.30,1.55,0.37,0.45
2014-05-06 13:00:00,2,3601,71,1.21,2,2,0,2,2268,7607,1588,2885,71,71,0,71,0.10,1.90,0.57,1.25
2014-05-06 13:10:00,2,5756,71,0.52,2,2,0,2,3399,8011,1116,5722,71,71,0,71,0.20,0.90,0.21,0.53
2014-05-06 13:20:00,2,6450,71,0.55,2,2,0,2,4844,8937,1232,6234,71,71,0,71,0.10,1.10,0.31,0.50
2014-05-06 13:30:00,2,8551,71,0.33,2,2,0,2,4968,12611,2167,7747,71,71,0,71,0.10,0.75,0.23,0.28
2014-05-06 13:40:00,2,12182,71,0.21,2,2,0,2,8411,14567,1668,12546,71,71,0,71,0.05,0.80,0.22,0.10
2014-05-06 13:50:00,2,9632,71,0.62,2,2,0,2,4851,17163,3402,9600,71,71,0,71,0.15,1.65,0.45,0.53
2014-05-06 14:00:00,2,6512,71,0.68,2,2,0,2,3755,12375,2368,5845,71,71,0,71,0.15,1.10,0.33,0.72
2014-05-06 14:10:00,2,10139,71,0.42,2,2,0,2,5000,21317,4836,10218,71,71,0,71,0.00,1.20,0.36,0.30
2014-05-06 14:20:00,2,12639,71,0.21,2,2,0,2,5374,23223,4994,11984,71,71,0,71,0.00,0.50,0.17,0.25
2014-05-06 14:30:00,2,9912,71,0.39,2,2,0,2,4383,24216,6111,7934,71,71,0,71,0.00,0.75,0.25,0.45
2014-05-06 14:40:00,2,16393,71,0.17,2,2,0,2,2363,27674,7427,17559,71,71,0,71,0.00,0.75,0.22,0.10
2014-05-06 14:50:00,2,12401,71,0.23,2,2,0,2,4696,23905,5263,11425,71,71,0,71,0.00,1.35,0.39,0.10
2014-05-06 15:00:00,2,20863,65,0.02,2,2,0,2,13178,32186,6503,17592,41,71,12,71,0.00,0.05,0.02,0.00
2014-05-06 15:10:00,2,8553,73,0.15,2,2,0,2,4763,12635,2608,8214,71,77,3,71,0.00,0.35,0.12,0.10
2014-05-06 15:20:00,2,17941,72,0.04,2,2,0,2,11335,29738,6537,14658,71,77,2,71,0.00,0.20,0.07,0.00
2014-05-06 15:30:00,2,33736,47,0.00,2,2,0,2,27582,44706,5564,33436,0,78,38,78,0.00,0.00,0.00,0.00
2014-05-06 15:40:00,2,35841,0,0.00,2,2,0,2,18053,46878,8133,37171,0,0,0,0,0.00,0.00,0.00,0.00
2014-05-06 15:50:00,2,31039,45,0.00,2,2,0,2,19445,42149,6428,31773,0,78,37,71,0.00,0.00,0.00,0.00
2014-05-06 16:00:00,2,45802,0,0.00,2,2,0,2,39574,50000,4050,46451,0,0,0,0,0.00,0.00,0.00,0.00
2014-05-06 16:10:00,2,44312,0,0.00,2,2,0,2,36410,50000,4219,44832,0,0,0,0,0.00,0.00,0.00,0.00
2014-05-06 16:20:00,2,48974,0,0.00,2,2,0,2,47803,50000,889,48775,0,0,0,0,0.00,0.00,0.00,0.00
2014-05-06 16:30:00,2,47546,0,0.00,2,2,0,2,40348,50000,2841,48084,0,0,0,0,0.00,0.00,0.00,0.00
2014-05-06 16:40:00,2,48163,0,0.00,2,2,0,2,41175,50000,2932,50000,0,0,0,0,0.00,0.00,0.00,0.00
2014-05-06 16:50:00,2,49615,0,0.00,2,2,0,2,48141,50000,685,50000,0,0,0,0,0.00,0.00,0.00,0.00
2014-05-06 17:00:00,2,48974,0,0.00,2,2,0,2,44265,50000,1901,50000,0,0,0,0,0.00,0.00,0.00,0.00
2014-05-06 17:10:00,2,49967,0,0.00,2,2,0,2,49674,50000,98,50000,0,0,0,0,0.00,0.00,0.00,0.00
2014-05-06 17:20:00,2,49332,0,0.00,2,2,0,2,46630,50000,1166,50000,0,0,0,0,0.00,0.00,0.00,0.00
2014-05-06 17:30:00,2,48294,0,0.00,2,2,0,2,45887,50000,1453,48246,0,0,0,0,0.00,0.00,0.00,0.00
2014-05-06 17:40:00,2,46346,0,0.00,2,2,0,2,41769,50000,2643,47302,0,0,0,0,0.00,0.00,0.00,0.00
2014-05-06 17:50:00,2,42348,0,0.00,2,2,0,2,34145,48643,4465,43204,0,0,0,0,0.00,0.00,0.00,0.00
2014-05-06 18:00:00,2,33004,0,0.00,2,2,0,2,17034,45535,9225,34708,0,0,0,0,0.00,0.00,0.00,0.00
2014-05-06 18:10:00,2,24142,22,0.01,2,2,0,2,18252,31712,4099,25182,0,78,34,0,0.00,0.05,0.02,0.00
2014-05-06 18:20:00,2,20997,0,0.00,2,2,0,2,17956,24353,2233,21402,0,0,0,0,0.00,0.00,0.00,0.00
2014-05-06 18:30:00,2,16277,14,0.01,2,2,0,2,8374,24092,4425,16972,0,71,28,0,0.00,0.05,0.02,0.00
2014-05-06 18:40:00,2,17631,71,0.04,2,2,0,2,10001,28813,5005,17136,71,71,0,71,0.00,0.25,0.07,0.00
2014-05-06 18:50:00,2,30467,73,0.05,2,2,0,2,11273,42689,7999,30828,71,77,3,71,0.00,0.45,0.13,0.00
2014-05-06 19:00:00,2,23372,37,0.01,2,2,0,2,4780,44585,11699,21198,0,71,32,41,0.00,0.05,0.02,0.00
2014-05-06 19:10:00,2,13513,57,0.17,2,2,0,2,3726,31231,7567,12808,0,71,28,71,0.00,0.75,0.26,0.00
2014-05-06 19:20:00,2,8012,71,0.37,2,2,0,2,2667,22431,5985,5472,71,71,0,71,0.00,0.85,0.28,0.38
2014-05-06 19:30:00,2,10046,71,0.33,2,2,0,2,2606,24252,7156,8070,71,71,0,71,0.00,1.00,0.36,0.10
2014-05-06 19:40:00,2,5878,71,0.40,2,2,0,2,3322,8565,1544,5642,71,71,0,71,0.05,0.90,0.26,0.33
2014-05-06 19:50:00,2,8807,71,0.55,2,2,0,2,4038,16455,4042,8432,71,71,0,71,0.15,1.20,0.38,0.50
2014-05-06 20:00:00,2,8133,71,0.39,2,2,0,2,2938,17737,4079,7274,71,71,0,71,0.05,1.05,0.32,0.28
2014-05-06 20:10:00,2,13410,71,0.31,2,2,0,2,3577,29445,8697,10164,71,71,0,71,0.00,0.85,0.29,0.33
2014-05-06 20:20:00,2,12354,71,0.15,2,2,0,2,3673,22755,6060,12454,71,71,0,71,0.00,0.50,0.16,0.10
2014-05-06 20:30:00,2,19189,71,0.15,2,2,0,2,9555,33676,7633,17482,71,71,0,71,0.00,0.55,0.19,0.00
2014-05-06 20:40:00,2,21745,71,0.12,2,2,0,2,5798,38330,9424,18192,71,71,0,71,0.00,0.50,0.18,0.05
2014-05-06 20:50:00,2,21173,21,0.01,2,2,0,2,6909,40484,9685,21051,0,71,33,0,0.00,0.05,0.02,0.00
2014-05-06 21:00:00,2,19103,57,0.11,2,2,0,2,2781,42871,11699,16384,0,77,29,71,0.00,0.70,0.22,0.00
2014-05-06 21:10:00,2,21088,73,0.05,2,2,0,2,12043,30395,6189,21218,71,77,3,71,0.00,0.15,0.05,0.03
2014-05-06 21:20:00,2,11208,72,0.23,2,2,0,2,5575,18776,4189,10724,71,77,2,71,0.00,0.85,0.26,0.10
2014-05-06 21:30:00,2,8846,71,0.23,2,2,0,2,4533,12980,2702,8411,71,71,0,71,0.00,0.85,0.24,0.17
2014-05-06 21:40:00,2,15805,36,0.06,2,2,0,2,7937,25155,5209,16130,0,71,36,36,0.00,0.30,0.11,0.00
2014-05-06 21:50:00,2,13133,64,0.07,2,2,0,2,6723,27557,5655,11194,0,71,21,71,0.00,0.20,0.07,0.05
2014-05-06 22:00:00,2,20569,22,0.00,2,2,0,2,6677,33182,7580,20890,0,77,33,0,0.00,0.00,0.00,0.00
2014-05-06 22:10:00,2,33296,0,0.00,2,2,0,2,20197,48817,8738,32798,0,0,0,0,0.00,0.00,0.00,0.00
2014-05-06 22:20:00,2,33366,0,0.00,2,2,0,2,19516,41205,7093,35018,0,0,0,0,0.00,0.00,0.00,0.00
2014-05-06 22:30:00,2,29316,0,0.00,2,2,0,2,16386,42500,8850,26553,0,0,0,0,0.00,0.00,0.00,0.00
2014-05-06 22:40:00,2,34858,0,0.00,2,2,0,2,25179,46291,6814,31912,0,0,0,0,0.00,0.00,0.00,0.00
2014-05-06 22:50:00,2,32299,0,0.00,2,2,0,2,27067,41060,4081,30298,0,0,0,0,0.00,0.00,0.00,0.00
2014-05-06 23:00:00,2,31090,0,0.00,2,2,0,2,19272,47282,8480,29056,0,0,0,0,0.00,0.00,0.00,0.00
2014-05-06 23:10:00,2,36971,0,0.00,2,2,0,2,24307,48157,7822,37024,0,0,0,0,0.00,0.00,0.00,0.00
2014-05-06 23:20:00,2,24717,7,0.01,2,2,0,2,10851,40450,8926,23374,0,71,21,0,0.00,0.15,0.05,0.00
2014-05-06 23:30:00,2,27976,21,0.00,2,2,0,2,16988,34067,5466,29700,0,71,33,0,0.00,0.00,0.00,0.00
2014-05-06 23:40:00,2,22639,73,0.04,2,2,0,2,16402,32093,5694,19534,71,77,3,71,0.00,0.15,0.05,0.03
2014-05-06 23:50:00,2,16015,71,0.12,2,2,0,2,12572,20743,2739,15728,71,71,0,71,0.00,0.35,0.11,0.08
